Springfield, MO

3:05 PM CST on December 14, 2019 (GMT -0600)
Springfield-Branson Regional

Weather History for KSGF - October, 2019

Change the Weather History Date:

Sunday, October 6, 2019

  Actual Average Record
Temperature  
Mean Temperature 61 °F 61 °F  
Max Temperature 69 °F 72 °F 89 °F (1938)
Min Temperature 52 °F 50 °F 30 °F (1964)
Degree Days  
Heating Degree Days 4 6  
Month to date heating degree days 4 31  
Since 1 July heating degree days 4 86  
Cooling Degree Days 0 2  
Month to date cooling degree days 37 12  
Year to date cooling degree days 1687 1371  
Growing Degree Days 8 (Base 50)    
Moisture  
Dew Point 56 °F    
Average Humidity 83    
Maximum Humidity 93    
Minimum Humidity 72    
Precipitation  
Precipitation 0.38 in 0.12 in 2.34 in (1967)
Month to date precipitation 1.10 0.74  
Year to date precipitation 42.79 35.46  
Snow  
Snow 0.00 in - - ()
Month to date snowfall 0.0  
Since 1 July snowfall 0.0  
Since 1 September snowfall 0.0  
Snow Depth 0.00 in    
Sea Level Pressure  
Sea Level Pressure 30.08 in    
Wind  
Wind Speed 11 mph (NNE)    
Max Wind Speed 23 mph    
Max Gust Speed 30 mph    
Visibility 9 miles    
Events Rain , Thunderstorm    
T = Trace of Precipitation, MM = Missing Value Source: NWS Daily Summary

Daily Weather History Graph

Daily Weather History Graph

Search for Another Location

Airport or City:

Astronomy

Oct. 06, 2019 Rise Set
Actual Time 7:13 AM CDT 6:49 PM CDT
Civil Twilight 6:47 AM CDT 7:15 PM CDT
Nautical Twilight 6:16 AM CDT 7:45 PM CDT
Astronomical Twilight 5:46 AM CDT 8:16 PM CDT
Moon 3:19 PM CDT (10/6) 12:21 AM CDT (10/6)
Length of Visible Light 12h 28m
Length of Day
11h 36m
First Quarter, 60% of the Moon is Illuminated
Oct 6
First Quarter
Oct 13
Full
Oct 21
Last Quarter
Oct 27
New
Nov 4
First Quarter

Hourly Weather History & Observations

Time (CDT) Temp. Dew Point Humidity Pressure Visibility Wind Dir Wind Speed Gust Speed Precip Events Conditions
12:07 AM 70.0 °F 68.0 °F 93% 29.99 in 7.0 mi Calm Calm - 0.00 in   Overcast
12:28 AM 69.1 °F 66.9 °F 93% 29.99 in 4.0 mi Calm Calm - 0.01 in Rain , Thunderstorm Rain
12:33 AM 69.1 °F 66.9 °F 93% 30.00 in 2.5 mi NE 6.9 mph - 0.02 in Rain , Thunderstorm Heavy Rain
12:41 AM 69.1 °F 66.9 °F 93% 30.00 in 3.0 mi North 13.8 mph - 0.10 in Rain , Thunderstorm Rain
12:52 AM 68.0 °F 66.0 °F 93% 29.97 in 8.0 mi NNE 8.1 mph - 0.11 in Rain , Thunderstorm Light Rain
1:01 AM 69.1 °F 66.0 °F 90% 30.01 in 10.0 mi NE 5.8 mph - 0.00 in Rain Light Rain
1:21 AM 69.1 °F 66.9 °F 93% 30.02 in 5.0 mi North 10.4 mph - 0.00 in Rain Rain
1:52 AM 64.9 °F 61.0 °F 87% 29.99 in 8.0 mi NNE 15.0 mph - 0.05 in Rain Light Rain
2:02 AM 64.9 °F 61.0 °F 87% 30.03 in 9.0 mi NNE 10.4 mph - 0.01 in Rain Light Rain
2:10 AM 64.0 °F 61.0 °F 90% 30.04 in 10.0 mi NNE 9.2 mph - 0.01 in Rain Light Rain
2:52 AM 63.0 °F 59.0 °F 87% 29.99 in 9.0 mi NNE 9.2 mph - 0.01 in Rain Light Rain
3:52 AM 63.0 °F 59.0 °F 87% 29.99 in 10.0 mi NNE 13.8 mph - 0.00 in   Overcast
4:52 AM 62.1 °F 57.0 °F 84% 30.03 in 10.0 mi NE 9.2 mph - N/A   Overcast
5:52 AM 61.0 °F 55.9 °F 83% 30.03 in 10.0 mi NE 11.5 mph - N/A   Overcast
6:52 AM 60.1 °F 54.0 °F 80% 30.04 in 10.0 mi NE 12.7 mph - N/A   Overcast
7:52 AM 60.1 °F 52.0 °F 75% 30.07 in 10.0 mi NE 8.1 mph - N/A   Overcast
8:52 AM 59.0 °F 52.0 °F 78% 30.07 in 10.0 mi ENE 11.5 mph - 0.00 in   Overcast
9:52 AM 60.1 °F 51.1 °F 72% 30.09 in 10.0 mi ENE 12.7 mph - N/A   Overcast
10:01 AM 60.1 °F 51.1 °F 72% 30.11 in 10.0 mi ENE 12.7 mph - N/A   Overcast
10:52 AM 60.1 °F 52.0 °F 75% 30.12 in 10.0 mi NE 9.2 mph - 0.00 in   Overcast
11:52 AM 57.9 °F 52.0 °F 81% 30.12 in 10.0 mi NE 8.1 mph - 0.04 in Rain Light Rain
12:39 PM 57.0 °F 53.1 °F 87% 30.10 in 9.0 mi ENE 15.0 mph - 0.09 in Rain Light Rain
12:52 PM 57.0 °F 54.0 °F 89% 30.11 in 10.0 mi North 9.2 mph - 0.09 in Rain Light Rain
1:52 PM 55.9 °F 52.0 °F 87% 30.13 in 10.0 mi NNE 10.4 mph - 0.06 in Rain Light Rain
2:52 PM 55.9 °F 53.1 °F 90% 30.13 in 6.0 mi North 13.8 mph - 0.04 in Rain Rain
3:52 PM 55.9 °F 46.9 °F 72% 30.12 in 10.0 mi NNE 23.0 mph 29.9 mph 0.07 in   Overcast
4:01 PM 55.9 °F 45.0 °F 67% 30.13 in 10.0 mi NNE 19.6 mph - N/A   Overcast
5:52 PM 55.9 °F 48.9 °F 77% 30.14 in 10.0 mi NNE 13.8 mph 26.5 mph 0.00 in   Overcast
6:52 PM 55.9 °F 50.0 °F 80% 30.15 in 10.0 mi North 8.1 mph - N/A   Overcast
7:52 PM 55.9 °F 51.1 °F 84% 30.17 in 10.0 mi NE 5.8 mph - N/A   Overcast
8:52 PM 57.0 °F 51.1 °F 81% 30.20 in 10.0 mi North 5.8 mph - N/A   Overcast
9:52 PM 57.9 °F 50.0 °F 75% 30.20 in 10.0 mi ENE 9.2 mph - N/A   Overcast
10:52 PM 57.0 °F 51.1 °F 81% 30.22 in 10.0 mi NNW 4.6 mph - N/A   Overcast
11:52 PM 54.0 °F 50.0 °F 86% 30.22 in 10.0 mi NNW 10.4 mph - N/A   Scattered Clouds